Location: Putah Creek Observatory
(38.7021°N, 122.3865°W)
Time: 23:54:35
(UTC-07:00)

Daily predictions for brighter satellites

Satellite Brightness Start Highest point End
(mag) Time Altitude Azimuth Time Altitude Azimuth Time Altitude Azimuth
Cosmos 1633 3.3 20:06:17 10° SSW 20:09:53 59° W 20:13:29 10° N
Cosmos 1777 Rocket 4.0 20:05:21 10° NNW 20:10:39 85° ENE 20:15:55 10° SSE
FREGAT/IRIS 3.8 20:07:48 10° S 20:10:51 49° W 20:13:56 10° NNW
OAO 2 Rocket 3.8 20:07:09 10° WSW 20:11:56 47° SSE 20:16:48 10° E
NOSS 7 (D) 4.3 20:09:46 10° SSW 20:13:18 81° ESE 20:16:40 10° NE
Cosmos 1697 Rocket 3.8 20:10:43 10° SSE 20:14:59 23° E 20:19:16 10° NE
Resurs 01 Rocket 2.0 20:16:29 10° S 20:20:53 70° WSW 20:25:20 10° NNW
Cosmos 2278 3.7 20:16:43 10° SSW 20:22:22 76° ESE 20:28:04 10° NNE
Cosmos 1544 Rocket 3.6 20:18:18 10° S 20:22:40 89° WSW 20:27:07 10° N
METEOR-M 4.4 20:17:34 10° S 20:22:53 74° WSW 20:28:16 10° NNW
Meteor 2-4 Rocket 4.2 20:20:11 10° NNW 20:26:02 72° W 20:31:56 10° S
Cosmos 1934 Rocket 4.0 20:20:43 10° S 20:26:50 82° E 20:33:05 10° N
H-2A R/B 3.2 20:23:12 10° SSE 20:26:54 44° ENE 20:30:40 10° N
ALOS 2.3 20:22:24 10° SSE 20:26:58 60° ENE 20:31:35 10° N
Cosmos 1975 3.6 20:23:32 10° SSE 20:27:12 32° E 20:30:53 10° NNE
CZ-4B DEB 2.7 20:24:02 10° SSE 20:27:18 76° ENE 20:30:35 10° N
USA 186 2.4 20:25:19 10° SE 20:28:10 33° ENE 20:30:50 10° N
NOSS 3-4 (A) 3.9 20:21:33 10° NNW 20:28:39 89° ENE 20:36:09 10° SSE
NOSS 3-4 (C) 3.9 20:21:40 10° NNW 20:28:47 88° ENE 20:36:17 10° SSE
Cosmos 2208 Rocket 4.2 20:27:06 10° SSW 20:32:25 80° WNW 20:37:50 10° NNE
Helios 1B rocket 3.9 20:28:38 10° N 20:32:32 42° WNW 20:36:24 10° SW
Spot 2 Rocket 4.3 20:28:03 10° S 20:33:01 54° W 20:38:01 10° NNW
Lacrosse 5 rocket 1.3 20:31:00 10° NNW 20:34:39 52° NE 20:37:27 15° ESE
OTV 4 1.1 20:32:08 10° W 20:34:58 43° SSW 20:37:04 16° SE
Cosmos 2369 3.7 20:30:51 10° SSW 20:36:31 88° ESE 20:42:15 10° NNE
Cosmos 1980 Rocket 3.3 20:33:58 10° SSE 20:38:06 21° E 20:42:15 10° NE
Okean 2 3.7 20:34:15 10° NNW 20:38:24 70° W 20:42:30 10° S
BREEZE-M DEB (TANK) 4.0 20:39:16 10° SW 20:42:58 87° SE 20:55:53 10° NE
Envisat 4.2 20:40:38 15° ESE 20:43:38 24° ENE 20:47:41 10° NNE
EO 1 Delta rocket 4.0 20:39:04 10° NNE 20:43:49 76° E 20:49:22 10° S
Iridium 4 Rocket 3.6 20:42:12 10° N 20:47:01 45° E 20:51:23 10° SSE
CZ-2D R/B 3.2 20:43:42 10° SSE 20:47:34 88° WSW 20:51:28 10° NNW
Tiangong 1 2.2 20:46:17 10° WNW 20:49:13 37° N 20:51:20 16° ENE
FENGYUN 3A 3.9 20:53:23 10° S 20:58:43 71° WSW 21:04:04 10° NNW
Cosmos 1500 3.3 20:56:14 10° S 20:59:51 49° E 21:03:31 10° NNE
Meteor 1-12 Rocket 4.3 20:55:22 10° S 21:01:05 89° W 21:06:58 10° N
Cosmos 1656 3.6 20:56:45 10° SSW 21:02:22 81° ESE 21:07:57 10° NNE
Cosmos 1939 Rocket 3.7 21:01:50 26° ESE 21:03:25 35° ENE 21:07:13 10° N
Cosmos 2150 Rocket 4.1 21:01:51 10° N 21:06:54 53° ENE 21:09:44 25° SE
Cosmos 2227 Rocket 2.7 21:02:46 10° NNW 21:08:20 59° WSW 21:13:51 10° S
Cosmos 1346 Rocket 4.5 21:05:23 10° NNW 21:08:59 34° W 21:12:36 10° SSW
BREEZE-M TANK 3.7 20:57:37 10° WNW 21:09:51 62° NNE 21:12:07 25° E
Cosmos 1461 3.9 21:06:09 10° NW 21:09:55 39° WSW 21:13:01 13° S
Cosmos 2173 Rocket 4.2 21:04:58 10° SSE 21:11:03 49° E 21:17:07 10° NNE
ERS-1 Rocket 3.1 21:08:10 22° SE 21:11:18 57° ENE 21:16:14 10° N
Cosmos 1340 4.0 21:08:51 10° NNE 21:11:43 23° ENE 21:11:43 23° ENE
Lacrosse 5 2.4 21:08:12 10° NNW 21:13:04 45° NE 21:15:16 28° E
YAOGAN 11 4.1 21:15:32 24° SSE 21:18:14 76° ENE 21:22:42 10° N
H-2A R/B 2.8 21:17:55 31° E 21:18:21 32° ENE 21:22:01 10° N
SPOT 5 3.7 21:19:03 29° E 21:20:08 32° ENE 21:24:25 10° N
DELTA 2 R/B (1) 3.6 21:15:11 10° W 21:20:44 71° SSW 21:23:11 34° ESE
Cosmos 1626 Rocket 4.2 21:19:03 10° NNW 21:23:21 56° W 21:27:25 11° S
Cosmos 1763 Rocket 3.8 21:21:33 29° SSE 21:23:28 41° ESE 21:28:14 10° NNE
Cosmos 2297 Rocket 2.6 21:18:01 10° NNW 21:23:37 62° WSW 21:28:02 16° S
Cosmos 1515 3.9 21:20:53 10° NNW 21:24:43 72° W 21:26:47 26° S
Cosmos 2100 Rocket 3.9 21:18:35 10° S 21:24:50 70° E 21:31:02 10° NNE
Cosmos 1898 Rocket 3.4 21:20:23 10° NNW 21:25:43 85° ENE 21:28:26 29° SSE
CZ-4 DEB 2.9 21:28:30 54° SSW 21:29:02 69° WSW 21:32:11 10° NNW
RESURS DK-1 2.4 21:27:45 10° NNW 21:31:52 58° ENE 21:32:21 54° E
Cosmos 2061 Rocket 3.9 21:25:59 10° S 21:32:16 73° E 21:38:30 10° N
Cosmos 1758 Rocket 4.4 21:31:08 10° N 21:34:39 33° ENE 21:34:39 33° ENE
Cosmos 2084 3.4 21:32:08 10° NW 21:36:13 76° WSW 21:37:09 53° SSE
deb Chang Zheng 4 3.6 21:33:04 10° NNE 21:37:30 60° ESE 21:38:04 54° SE
Cosmos 1743 2.6 21:36:51 59° S 21:37:32 81° E 21:41:28 10° N
Nimbus 7 Rocket 4.4 21:32:47 10° NNE 21:38:49 62° ESE 21:42:45 22° S
Cosmos 468 Rocket 4.4 21:34:23 10° SSW 21:39:26 63° WNW 21:44:33 10° NNE
Cosmos 841 Rocket 3.4 21:44:51 48° SSE 21:46:01 60° ESE 21:51:11 10° NNE
Terra 4.1 21:50:19 12° NE 21:50:19 12° NE 21:51:20 10° NE
Cosmos 1814 Rocket 4.5 21:44:47 10° SSW 21:50:03 62° WNW 21:55:20 10° NNE
OAO 2 Rocket 3.4 21:51:31 10° W 21:56:23 56° S 21:56:23 56° S
Cosmos 1459 Rocket 4.1 21:50:34 10° SSW 21:56:35 69° W 22:02:40 10° N
Cosmos 1725 Rocket 4.0 21:57:34 53° ESE 21:58:19 56° E 22:04:25 10° NNE
Cosmos 2058 Rocket 3.7 21:59:31 45° NE 21:59:31 45° NE 22:02:50 10° NNE
Cosmos 1697 Rocket 3.7 21:53:10 10° SW 21:58:35 47° WNW 22:04:01 10° N
SL-19 R/B 4.4 21:57:04 10° NNE 22:01:33 49° ENE 22:01:33 49° ENE
Cosmos 1606 Rocket 3.7 22:04:30 64° WSW 22:04:53 69° W 22:09:19 10° N
SL-16 R/B 3.5 22:09:53 25° NE 22:09:53 25° NE 22:12:26 10° NE
NOAA 11 4.4 22:09:44 54° ENE 22:09:44 54° ENE 22:14:50 10° N
ASTEX 1 3.3 22:06:29 10° N 22:11:30 84° W 22:11:45 80° SW
Lacrosse 5 rocket 3.7 22:11:41 10° W 22:13:11 13° WSW 22:13:11 13° WSW
ARGOS 3.3 22:16:35 58° NE 22:16:35 58° NE 22:21:26 10° N
CZ-3C R/B 4.2 21:58:36 10° W 22:17:27 23° SW 22:20:53 19° SSW
Cosmos 1980 Rocket 3.0 22:16:11 10° SW 22:21:40 50° WNW 22:27:13 10° NNE
Envisat 4.2 22:20:52 30° SW 22:22:25 37° W 22:27:08 10° NNW
Cosmos 2233 Rocket 4.4 22:24:23 48° ENE 22:24:23 48° ENE 22:29:22 10° NNE
Tiangong 1 4.3 22:22:48 10° WNW 22:23:17 14° WNW 22:23:17 14° WNW
BREEZE-M DEB (TANK) 4.2 22:10:09 10° WNW 22:29:02 56° NNE 22:30:48 44° ENE
MetOp-B 4.4 22:30:23 61° WSW 22:30:34 62° WSW 22:35:53 10° NNW
H-2A R/B 3.2 22:39:08 32° NNE 22:39:08 32° NNE 22:42:01 10° N
Milstar 3 Cent rocket 4.3 22:33:20 10° W 22:50:00 43° SSW 22:51:21 42° S
Cosmos 2263 Rocket 3.2 22:45:05 10° N 22:48:52 37° NNE 22:48:52 37° NNE
H-2A R/B 4.4 22:55:03 18° W 22:55:03 18° W 22:57:18 10° NW
Cosmos 2322 Rocket 3.0 22:56:07 45° N 22:56:07 45° N 23:00:04 10° NNE
Lacrosse 5 3.6 22:51:31 10° WNW 22:54:28 25° W 22:54:28 25° W
SPOT 1/Viking Rocket 4.5 22:57:26 45° WNW 22:57:26 45° WNW 23:01:31 10° NNW
Terra 3.9 23:29:13 24° NNW 23:29:13 24° NNW 23:31:06 10° NNW
USA 215 3.8 23:37:56 54° NW 23:37:56 54° NW 23:42:50 10° NW
SL-16 R/B 4.0 23:51:42 26° NW 23:51:42 26° NW 23:56:04 10° N
